Find Orbcomm G2

NORAD ID: 25159 Int'l Des: 1998-007 Owner: ORBC Country: US Constellation: orbcomm operational
LEOCIRCULARRETROGRADE

Current View

Loading 3D Globe...

About Orbcomm G2

Description loading...

Upcoming Passes

Passes for default location (London). Set your location on the main map for personalized predictions.

Altitude History

Loading altitude history...

Two-Line Element Set

1 25159U 98007C 26149.51260292 .00001165 00000-0 44455-3 0 9993
2 25159 107.9624 130.9859 0040695 357.0404 3.0490 14.35700214473912
Epoch: May 29, 2026 • Age: 17 hours

Current Status

Altitude 779.7 km
Velocity 7.47 km/s
Sub-Earth Point 68.28°N, 109.92°E
Launch Date Feb 10, 1998
Age 28.2 years
Type other

Technical Details

Classification Payload
Mass 42.00 kg
Dry Mass 42.00 kg
Total Mass 42.00 kg
Length 0.20 m
Diameter 1.00 m
Span 4.30 m
Shape Cyl + 2 Pan + Ant
Manufacturer OSCG
Bus Type Microstar
Phase Status In Orbit
Owner/State ORBC/US

Most Searched